Location: Bidwell Hollow
(37.7387°N, 90.1707°W)
Time: 01:52:11
(UTC+00:00)

Vanguard 3 - Pass Details

Date: 19 May 2026
Orbit: 507 x 3204 km, 33.3° (Epoch: 6 June)

Event Time Altitude Azimuth Distance (km) Brightness Sun altitude
Rises 17:24:09 0° 228° (SW) 5,604 11.5 70.8°
Reaches altitude 10° 17:27:28 10° 223° (SW) 4,907 11.4 71.0°
Maximum altitude 17:42:18 55° 151° (SSE) 3,435 12.1 71.9°
Drops below altitude 10° 18:01:00 10° 82° (E) 6,056 11.7 72.1°
Sets 18:05:36 0° 78° (ENE) 6,944 11.8 72.1°
